Weather History for Keene, NH

Change the Weather History Date:

Thursday, May 3, 2012

  Actual Average Record
Temperature  
Mean Temperature 9 °C -  
Max Temperature 12 °C 17 °C 31 °C (2001)
Min Temperature 7 °C 3 °C -5 °C (1966)
Degree Days  
Heating Degree Days 16    
Moisture  
Dew Point 8 °C    
Average Humidity 85    
Maximum Humidity 93    
Minimum Humidity 77    
Precipitation  
Precipitation 4.57 mm - - ()
Sea Level Pressure  
Sea Level Pressure 1021 hPa    
Wind  
Wind Speed 5 km/h (SSW)    
Max Wind Speed 13 km/h    
Max Gust Speed -    
Visibility 14 kilometers    
Events      
Averages and records for this station are not official NWS values.
T = Trace of Precipitation, MM = Missing Value Source: NWS Daily Summary

Daily Weather History Graph

Daily Weather History Graph

Search for Another Location

Airport:

Trip Planner

Search our weather history database for the weather conditions in past years. The results will help you decide how hot, cold, wet, or windy it might be!

Date:

Astronomy

May. 03, 2012 Rise Set
Actual Time 5:39 AM EDT 7:52 PM EDT
Civil Twilight 5:08 AM EDT 8:24 PM EDT
Nautical Twilight 4:30 AM EDT 9:02 PM EDT
Astronomical Twilight 3:47 AM EDT 9:45 PM EDT
Moon 5:10 PM EDT (5/3) 3:46 AM EDT (5/3)
Length of Visible Light 15h 15m
Length of Day
14h 12m
Waxing Gibbous, 91% of the Moon is Illuminated
May 3
Waxing Gibbous
May 5
Full
May 12
Last Quarter
May 20
New
May 28
First Quarter

Hourly Weather History & Observations

Time (EDT) Temp. Windchill Dew Point Humidity Pressure Visibility Wind Dir Wind Speed Gust Speed Precip Events Conditions
12:35 AM 9.0 °C - 7.0 °C 87% 1021.6 hPa 6.4 km SSW 7.4 km/h / 2.1 m/s - N/A   Overcast
12:55 AM 8.0 °C - 7.0 °C 93% 1021.9 hPa 8.0 km Calm Calm - N/A   Overcast
1:15 AM 8.0 °C 7.3 °C 7.0 °C 93% 1021.2 hPa 6.4 km South 5.6 km/h / 1.5 m/s - N/A   Overcast
1:35 AM 8.0 °C 7.3 °C 7.0 °C 93% 1020.9 hPa 6.4 km South 5.6 km/h / 1.5 m/s - 0.3 mm   Overcast
1:55 AM 8.0 °C 6.4 °C 6.0 °C 87% 1020.2 hPa 16.1 km South 9.3 km/h / 2.6 m/s - 0.5 mm   Overcast
2:15 AM 8.0 °C 6.8 °C 6.0 °C 87% 1020.5 hPa 16.1 km South 7.4 km/h / 2.1 m/s - 0.3 mm   Overcast
2:35 AM 8.0 °C 6.8 °C 6.0 °C 87% 1020.5 hPa 16.1 km South 7.4 km/h / 2.1 m/s - 0.5 mm   Overcast
2:55 AM 8.0 °C 6.8 °C 6.0 °C 87% 1020.2 hPa 16.1 km South 7.4 km/h / 2.1 m/s - 0.5 mm   Overcast
3:15 AM 8.0 °C - 6.0 °C 87% 1020.5 hPa 16.1 km Calm Calm - N/A   Overcast
3:55 AM 8.0 °C - 6.0 °C 87% 1020.9 hPa 9.7 km Calm Calm - 1.3 mm   Overcast
4:15 AM 8.0 °C - 6.0 °C 87% 1020.9 hPa 14.5 km Calm Calm - 1.0 mm   Overcast
4:35 AM 7.0 °C - 6.0 °C 93% 1020.2 hPa 14.5 km Calm Calm - 1.0 mm   Overcast
4:55 AM 7.0 °C - 6.0 °C 93% 1020.2 hPa 16.1 km Calm Calm - 1.0 mm   Overcast
5:15 AM 7.0 °C - 6.0 °C 93% 1020.5 hPa 16.1 km Calm Calm - N/A   Overcast
5:35 AM 7.0 °C - 6.0 °C 93% 1020.2 hPa 12.9 km Calm Calm - 0.5 mm   Overcast
5:55 AM 7.0 °C - 6.0 °C 93% 1020.5 hPa 12.9 km Calm Calm - 1.0 mm   Overcast
6:15 AM 8.0 °C - 6.0 °C 87% 1020.9 hPa 14.5 km Calm Calm - 0.3 mm   Overcast
6:35 AM 8.0 °C - 6.0 °C 87% 1020.9 hPa 8.0 km Calm Calm - 0.3 mm   Overcast
7:15 AM 8.0 °C - 7.0 °C 93% 1020.9 hPa 14.5 km Calm Calm - N/A   Overcast
7:35 AM 8.0 °C - 6.0 °C 87% 1021.2 hPa 16.1 km Calm Calm - N/A   Overcast
7:55 AM 8.0 °C - 7.0 °C 93% 1021.2 hPa 14.5 km Calm Calm - N/A   Overcast
8:35 AM 8.0 °C - 7.0 °C 93% 1021.2 hPa 16.1 km Calm Calm - N/A   Overcast
8:55 AM 9.0 °C - 7.0 °C 87% 1021.6 hPa 16.1 km Calm Calm - N/A   Overcast
9:15 AM 9.0 °C - 7.0 °C 87% 1021.6 hPa 8.0 km Calm Calm - N/A   Overcast
9:35 AM 9.0 °C - 7.0 °C 87% 1021.9 hPa 8.0 km Calm Calm - N/A   Overcast
9:55 AM 9.0 °C - 7.0 °C 87% 1021.9 hPa 4.8 km Calm Calm - N/A   Overcast
10:15 AM 9.0 °C - 8.0 °C 93% 1021.9 hPa 4.8 km Calm Calm - N/A   Overcast
10:35 AM 9.0 °C - 8.0 °C 93% 1021.9 hPa 6.4 km Calm Calm - N/A   Overcast
10:55 AM 9.0 °C - 8.0 °C 93% 1021.9 hPa 8.0 km Calm Calm - N/A   Overcast
11:15 AM 10.0 °C - 8.0 °C 87% 1021.6 hPa 14.5 km Calm Calm - N/A   Overcast
11:55 AM 11.0 °C - 8.0 °C 82% 1021.6 hPa 16.1 km South 11.1 km/h / 3.1 m/s - N/A   Overcast
12:15 PM 11.0 °C - 8.0 °C 82% 1021.6 hPa 16.1 km South 13.0 km/h / 3.6 m/s - N/A   Overcast
12:55 PM 11.0 °C - 8.0 °C 82% 1021.2 hPa 16.1 km SSW 11.1 km/h / 3.1 m/s - N/A   Overcast
1:15 PM 11.0 °C - 8.0 °C 82% 1021.2 hPa 16.1 km South 13.0 km/h / 3.6 m/s - N/A   Overcast
1:35 PM 12.0 °C - 8.0 °C 77% 1020.9 hPa 16.1 km SSW 11.1 km/h / 3.1 m/s - N/A   Overcast
1:55 PM 12.0 °C - 8.0 °C 77% 1020.9 hPa 16.1 km South 9.3 km/h / 2.6 m/s - N/A   Overcast
2:15 PM 12.0 °C - 8.0 °C 77% 1020.5 hPa 16.1 km SSW 11.1 km/h / 3.1 m/s - N/A   Overcast
2:35 PM 12.0 °C - 8.0 °C 77% 1020.5 hPa 16.1 km SSW 9.3 km/h / 2.6 m/s - N/A   Overcast
2:55 PM 12.0 °C - 8.0 °C 77% 1020.2 hPa 16.1 km SW 9.3 km/h / 2.6 m/s - N/A   Overcast
3:15 PM 12.0 °C - 8.0 °C 77% 1020.5 hPa 16.1 km SSW 13.0 km/h / 3.6 m/s - N/A   Overcast
3:35 PM 12.0 °C - 8.0 °C 77% 1020.2 hPa 16.1 km SW 11.1 km/h / 3.1 m/s - N/A   Overcast
3:55 PM 12.0 °C - 8.0 °C 77% 1020.2 hPa 16.1 km SSW 11.1 km/h / 3.1 m/s - N/A   Overcast
4:15 PM 12.0 °C - 8.0 °C 77% 1020.2 hPa 16.1 km WSW 7.4 km/h / 2.1 m/s - N/A   Overcast
4:35 PM 12.0 °C - 8.0 °C 77% 1020.2 hPa 16.1 km SW 7.4 km/h / 2.1 m/s - N/A   Overcast
4:55 PM 12.0 °C - 8.0 °C 77% 1020.2 hPa 16.1 km South 9.3 km/h / 2.6 m/s - N/A   Overcast
5:15 PM 12.0 °C - 8.0 °C 77% 1020.2 hPa 16.1 km South 7.4 km/h / 2.1 m/s - N/A   Overcast
5:55 PM 12.0 °C - 8.0 °C 77% 1019.5 hPa 16.1 km SSW 5.6 km/h / 1.5 m/s - N/A   Overcast
6:15 PM 12.0 °C - 8.0 °C 77% 1019.2 hPa 16.1 km South 9.3 km/h / 2.6 m/s - N/A   Overcast
6:35 PM 12.0 °C - 8.0 °C 77% 1018.8 hPa 16.1 km South 9.3 km/h / 2.6 m/s - N/A   Overcast
6:55 PM 12.0 °C - 8.0 °C 77% 1019.5 hPa 16.1 km SW 9.3 km/h / 2.6 m/s - N/A   Overcast
7:15 PM 12.0 °C - 9.0 °C 82% 1019.5 hPa 16.1 km South 11.1 km/h / 3.1 m/s - N/A   Overcast
7:35 PM 12.0 °C - 9.0 °C 82% 1019.9 hPa 16.1 km South 7.4 km/h / 2.1 m/s - N/A   Overcast
7:55 PM 11.0 °C - 9.0 °C 88% 1019.9 hPa 9.7 km South 7.4 km/h / 2.1 m/s - N/A   Overcast
8:15 PM 11.0 °C - 9.0 °C 88% 1019.9 hPa 8.0 km South 9.3 km/h / 2.6 m/s - N/A   Overcast
8:35 PM 11.0 °C - 9.0 °C 88% 1019.5 hPa 8.0 km Calm Calm - N/A   Overcast
8:55 PM 11.0 °C - 9.0 °C 88% 1019.5 hPa 14.5 km South 5.6 km/h / 1.5 m/s - N/A   Overcast
9:15 PM 11.0 °C - 9.0 °C 88% 1019.5 hPa 16.1 km South 5.6 km/h / 1.5 m/s - N/A   Overcast
9:35 PM 11.0 °C - 9.0 °C 88% 1019.5 hPa 16.1 km Calm Calm - N/A   Overcast
9:55 PM 11.0 °C - 9.0 °C 88% 1019.9 hPa 16.1 km SSW 5.6 km/h / 1.5 m/s - N/A   Overcast
10:15 PM 11.0 °C - 9.0 °C 88% 1019.9 hPa 16.1 km South 5.6 km/h / 1.5 m/s - N/A   Overcast
10:55 PM 11.0 °C - 9.0 °C 88% 1019.2 hPa 16.1 km South 11.1 km/h / 3.1 m/s - N/A   Overcast
11:15 PM 11.0 °C - 9.0 °C 88% 1018.8 hPa 16.1 km Calm Calm - N/A   Overcast
11:55 PM 11.0 °C - 9.0 °C 88% 1018.5 hPa 16.1 km South 5.6 km/h / 1.5 m/s - N/A   Overcast